GW3103 Weather Reports


time (UTC)temp
F
wind
direction
speed
knots
gust
knots
rain 1hr
in
rain 24hr
in
rain mn
in
humidity
%
barometer
mb
20260506231658 63 45 0.0 0.0 0.00 0.46 0.46 95 1006.4
20260506231156 63 47 0.0 0.0 0.00 0.46 0.46 95 1006.6
20260506230653 63 331 1.7 1.7 0.00 0.46 0.46 95 1006.7
20260506230149 63 40 0.9 0.9 0.00 0.46 0.46 95 1006.5
20260506225646 63 314 2.6 2.6 0.00 0.46 0.46 95 1006.6
20260506225143 63 325 2.6 4.3 0.00 0.46 0.46 95 1006.5
20260506224639 63 53 0.9 1.7 0.00 0.46 0.46 95 1006.5
20260506224136 63 38 0.9 0.9 0.07 0.46 0.46 94 1006.5
20260506223632 63 35 0.9 1.7 0.12 0.46 0.46 94 1006.6
20260506223128 64 356 2.6 4.3 0.05 0.45 0.45 93 1006.3
20260506222626 64 255 0.9 0.9 0.00 0.44 0.44 91 1006.3
20260506222122 64 218 1.7 4.3 0.00 0.44 0.44 90 1006.2
20260506221620 64 233 2.6 5.2 0.00 0.44 0.44 90 1006.3
20260506221117 65 262 2.6 4.3 0.00 0.44 0.44 90 1006.3
20260506220614 65 244 2.6 2.6 0.00 0.44 0.44 89 1006.3
20260506220109 65 27 1.7 2.6 0.00 0.44 0.44 90 1006.2
20260506215606 64 344 2.6 2.6 0.00 0.44 0.44 90 1006.1
20260506215101 64 283 2.6 2.6 0.00 0.44 0.44 90 1006.1
20260506214559 64 293 2.6 2.6 0.00 0.44 0.44 91 1006.0
20260506214056 64 331 1.7 2.6 0.00 0.44 0.44 92 1006.2
20260506213554 64 300 1.7 1.7 0.00 0.44 0.44 93 1006.0
20260506213051 63 63 1.7 2.6 0.00 0.44 0.44 94 1006.0
20260506212548 63 41 0.9 0.9 0.00 0.44 0.44 95 1005.9
20260506212042 62 224 2.6 2.6 0.00 0.44 0.44 96 1006.0
20260506211539 62 0 1.7 1.7 0.00 0.44 0.44 97 1005.8
20260506211036 62 18 0.9 1.7 0.00 0.44 0.44 97 1005.7
20260506210532 62 43 0.0 0.0 0.00 0.44 0.44 98 1005.7
20260506210029 62 31 0.0 0.9 0.00 0.44 0.44 98 1005.9
20260506205526 62 313 1.7 1.7 0.00 0.44 0.44 98 1005.7
20260506205021 62 23 0.9 1.7 0.00 0.44 0.44 98 1005.6
20260506204519 62 340 0.9 1.7 0.00 0.44 0.44 98 1005.9
20260506204016 61 9 0.9 1.7 0.00 0.44 0.44 98 1005.8
20260506203515 61 3 1.7 1.7 0.00 0.44 0.44 98 1005.9
20260506203011 61 250 1.7 2.6 0.00 0.44 0.44 98 1005.7
20260506202508 61 42 0.0 0.0 0.00 0.44 0.44 98 1005.8
20260506202004 61 336 1.7 1.7 0.00 0.44 0.44 98 1005.6
20260506201502 61 355 0.9 1.7 0.00 0.44 0.44 99 1005.8
20260506200958 61 343 0.9 0.9 0.00 0.44 0.44 99 1005.8
20260506200454 61 6 0.9 1.7 0.00 0.44 0.44 99 1005.9
20260506195951 61 34 0.9 0.9 0.00 0.44 0.44 99 1005.6
20260506195448 61 41 0.9 0.9 0.00 0.44 0.44 99 1005.8
20260506194945 61 22 0.9 1.7 0.00 0.44 0.44 99 1005.9
20260506194442 61 343 1.7 2.6 0.00 0.44 0.44 99 1006.0
20260506193933 61 40 0.9 1.7 0.00 0.44 0.44 99 1005.8
20260506193430 61 17 1.7 2.6 0.00 0.44 0.44 99 1005.8
20260506192927 61 45 0.0 0.9 0.00 0.44 0.44 99 1005.8
20260506192424 61 54 0.0 0.0 0.00 0.44 0.44 99 1006.0
20260506191920 61 79 1.7 1.7 0.00 0.44 0.44 99 1005.9
20260506191417 61 205 1.7 2.6 0.00 0.44 0.44 99 1006.0
20260506190914 61 28 0.0 0.0 0.00 0.44 0.44 99 1006.0
20260506190410 61 41 1.7 1.7 0.00 0.44 0.44 99 1006.2
20260506185907 60 112 0.9 1.7 0.00 0.44 0.44 99 1006.1
20260506185404 61 53 0.0 0.0 0.00 0.44 0.44 99 1006.1
20260506184902 60 43 0.0 0.0 0.00 0.44 0.44 99 1006.1
20260506184358 60 164 0.9 1.7 0.00 0.44 0.44 99 1006.5
20260506183856 60 20 0.9 0.9 0.07 0.44 0.44 99 1006.4
20260506183350 60 292 0.0 0.9 0.12 0.44 0.44 99 1006.4
20260506182848 61 29 0.0 0.0 0.05 0.43 0.43 99 1006.5
20260506182345 61 28 0.0 0.0 0.07 0.42 0.42 99 1006.4
20260506181843 61 225 1.7 1.7 0.07 0.42 0.42 99 1006.7
20260506181341 61 45 0.0 0.9 0.05 0.41 0.41 99 1006.5
20260506180837 61 131 0.9 0.9 0.12 0.41 0.41 99 1006.4
20260506180333 60 107 1.7 2.6 0.12 0.40 0.40 99 1006.4
20260506175830 61 313 1.7 1.7 0.19 0.40 0.40 99 1006.4
20260506175327 60 358 0.9 0.9 0.12 0.38 0.38 99 1006.6
20260506174824 60 20 0.0 0.9 0.12 0.37 0.37 99 1006.7
20260506174321 60 83 0.0 0.9 0.07 0.36 0.36 98 1006.8
20260506173819 60 164 0.9 0.9 0.07 0.35 0.35 98 1006.5
20260506173315 60 13 0.0 0.9 0.12 0.35 0.35 98 1006.7
20260506172812 60 26 1.7 1.7 0.12 0.34 0.34 98 1006.7
20260506172309 60 358 2.6 2.6 0.17 0.34 0.34 98 1006.9
20260506171807 60 289 2.6 4.3 0.19 0.33 0.33 98 1006.5
20260506171303 60 226 2.6 2.6 0.12 0.31 0.31 98 1006.6
20260506170801 60 33 1.7 1.7 0.05 0.30 0.30 98 1006.8
20260506170257 60 40 0.9 0.9 0.07 0.29 0.29 98 1006.6
20260506165756 60 229 0.9 1.7 0.19 0.29 0.29 98 1006.8
20260506165253 60 246 1.7 4.3 0.24 0.28 0.28 97 1006.7
20260506164750 60 8 0.9 1.7 0.17 0.26 0.26 97 1006.6
20260506164246 60 31 0.0 0.9 0.05 0.24 0.24 97 1006.7
20260506163744 60 213 1.7 2.6 0.00 0.23 0.23 97 1007.0
20260506163238 60 97 0.9 0.9 0.07 0.23 0.23 97 1006.8
20260506162734 60 291 2.6 4.3 0.07 0.23 0.23 97 1006.7
20260506162233 60 214 3.5 5.2 0.07 0.23 0.23 97 1006.9
20260506161729 60 228 1.7 1.7 0.00 0.22 0.22 96 1007.0
20260506161227 60 347 2.6 4.3 0.07 0.22 0.22 96 1007.3
20260506160724 60 356 5.2 8.7 0.07 0.22 0.22 96 1007.0
20260506160220 60 320 1.7 1.7 0.05 0.21 0.21 96 1007.0
20260506155718 61 276 2.6 2.6 0.12 0.21 0.21 95 1007.0
20260506155215 61 19 3.5 4.3 0.12 0.21 0.21 95 1007.3
20260506153318 61 265 7.8 9.6 0.17 0.17 0.17 96 1007.3
20260506152815 61 53 2.6 4.3 0.19 0.16 0.16 96 1007.4
20260506152312 61 357 1.7 2.6 0.07 0.14 0.14 95 1007.9
20260506151811 61 51 1.7 2.6 0.05 0.13 0.13 95 1007.8
20260506151307 61 213 3.5 4.3 0.12 0.13 0.13 94 1007.6
20260506150804 61 284 4.3 5.2 0.07 0.12 0.12 94 1007.6
20260506150304 61 96 4.3 7.0 0.07 0.11 0.11 94 1007.6
20260506145758 61 56 1.7 1.7 0.12 0.11 0.11 94 1007.6
20260506145254 61 182 2.6 2.6 0.12 0.10 0.10 93 1007.1
20260506144752 61 259 4.3 6.1 0.07 0.09 0.09 93 1007.5
20260506144248 61 11 2.6 2.6 0.05 0.08 0.08 93 1007.5
20260506143746 61 203 2.6 2.6 0.05 0.08 0.08 93 1007.4
20260506143243 62 20 0.9 1.7 0.07 0.07 0.07 94 1007.4
20260506142742 62 90 0.9 0.9 0.07 0.07 0.07 94 1007.9
20260506142239 62 45 0.9 0.9 0.00 0.06 0.06 94 1007.7
20260506141738 61 240 2.6 2.6 0.05 0.06 0.06 93 1007.9
20260506141235 62 73 0.9 0.9 0.05 0.06 0.06 93 1007.7
20260506140732 62 313 0.9 1.7 0.07 0.05 0.05 93 1007.7
20260506140229 62 184 0.9 0.9 0.07 0.05 0.05 93 1007.7
20260506135726 62 204 2.6 5.2 0.00 0.04 0.04 92 1007.5
20260506135222 62 316 1.7 1.7 0.00 0.04 0.04 92 1007.6
20260506134719 62 240 3.5 4.3 0.05 0.04 0.04 91 1007.9
20260506134215 62 149 2.6 4.3 0.05 0.04 0.04 91 1008.0
20260506133713 62 173 1.7 2.6 0.00 0.03 0.03 91 1008.0
20260506133209 62 49 0.0 0.0 0.07 0.03 0.03 91 1008.0
20260506132706 62 288 1.7 1.7 0.07 0.03 0.03 91 1008.0
20260506132203 62 53 0.0 0.0 0.00 0.02 0.02 91 1007.9
20260506131701 62 318 0.9 1.7 0.05 0.02 0.02 90 1007.9
20260506131157 62 104 1.7 2.6 0.05 0.02 0.02 89 1008.0
20260506130654 62 320 1.7 1.7 0.05 0.02 0.02 88 1008.0
20260506130151 62 199 2.6 5.2 0.00 0.01 0.01 88 1008.1
20260506125649 63 50 0.0 0.0 0.07 0.01 0.01 88 1008.1
20260506125147 63 36 1.7 1.7 0.07 0.01 0.01 86 1008.1
20260506124645 63 32 0.9 1.7 0.00 0.00 0.00 85 1007.9
20260506124142 64 153 0.9 4.3 0.00 0.00 0.00 83 1008.0
20260506123639 64 249 5.2 7.0 0.00 0.00 0.00 83 1008.0
20260506123138 64 245 2.6 4.3 0.00 0.00 0.00 84 1007.7
20260506122634 64 354 0.9 1.7 0.00 0.00 0.00 83 1008.0
20260506122132 64 39 0.9 0.9 0.00 0.00 0.00 84 1007.7
20260506121630 64 292 2.6 4.3 0.00 0.00 0.00 84 1007.8
20260506121126 64 47 0.0 0.0 0.00 0.00 0.00 84 1007.8
20260506120624 64 51 0.0 0.0 0.00 0.00 0.00 85 1007.7
20260506120121 64 194 0.9 1.7 0.00 0.00 0.00 85 1007.8
20260506115620 64 12 0.9 1.7 0.00 0.00 0.00 84 1007.7
20260506115117 64 35 0.9 1.7 0.00 0.00 0.00 82 1007.6
20260506114614 64 348 1.7 1.7 0.00 0.00 0.00 81 1007.7
20260506114112 65 18 0.9 1.7 0.00 0.00 0.00 81 1007.7
20260506113610 65 196 2.6 2.6 0.00 0.00 0.00 80 1007.6
20260506113107 65 306 1.7 2.6 0.00 0.00 0.00 79 1007.8
20260506112603 65 75 0.9 1.7 0.00 0.00 0.00 78 1007.6
20260506112101 65 65 0.9 0.9 0.00 0.00 0.00 78 1007.5
20260506111559 65 327 1.7 2.6 0.00 0.00 0.00 78 1007.7
20260506111056 65 132 1.7 1.7 0.00 0.00 0.00 78 1007.8
20260506110554 65 40 0.9 1.7 0.00 0.00 0.00 77 1007.4
20260506110051 65 53 1.7 1.7 0.00 0.00 0.00 77 1007.4
20260506105547 65 267 1.7 2.6 0.00 0.00 0.00 76 1007.6
20260506105044 66 334 2.6 2.6 0.00 0.00 0.00 76 1007.4
20260506104542 65 307 1.7 2.6 0.00 0.00 0.00 76 1007.3
20260506104040 65 33 1.7 2.6 0.00 0.00 0.00 76 1007.0
20260506103537 65 288 3.5 5.2 0.00 0.00 0.00 76 1007.2
20260506103033 65 259 1.7 2.6 0.00 0.00 0.00 75 1007.1
20260506102532 65 87 0.0 0.9 0.00 0.00 0.00 75 1007.0
20260506102029 65 47 0.0 0.0 0.00 0.00 0.00 75 1007.0
20260506101525 65 46 0.0 0.0 0.00 0.00 0.00 75 1006.9
20260506101022 65 214 2.6 2.6 0.00 0.00 0.00 74 1007.1
20260506100521 65 307 2.6 4.3 0.00 0.00 0.00 74 1006.9
20260506100019 65 63 0.9 1.7 0.00 0.00 0.00 75 1007.1
20260506095517 64 320 1.7 1.7 0.00 0.00 0.00 75 1007.1
20260506095013 65 341 0.9 1.7 0.00 0.00 0.00 74 1007.2
20260506094511 65 295 0.9 0.9 0.00 0.00 0.00 73 1007.4
20260506094009 65 333 0.9 1.7 0.00 0.00 0.00 73 1007.3
20260506093507 65 41 0.0 0.9 0.00 0.00 0.00 73 1007.2
20260506093004 65 5 0.9 0.9 0.00 0.00 0.00 73 1007.0
20260506092502 65 210 3.5 4.3 0.00 0.00 0.00 72 1007.2
20260506091958 65 30 0.0 0.9 0.00 0.00 0.00 72 1007.1
20260506091456 65 296 0.9 1.7 0.00 0.00 0.00 71 1007.4
20260506090953 66 8 3.5 4.3 0.00 0.00 0.00 71 1007.2
20260506090451 66 330 2.6 4.3 0.00 0.00 0.00 71 1007.3
20260506085947 65 26 0.0 0.9 0.00 0.00 0.00 70 1007.1
20260506085444 65 30 0.0 0.0 0.00 0.00 0.00 71 1007.3
20260506084940 65 57 0.0 0.0 0.00 0.00 0.00 70 1007.3
20260506084437 64 253 2.6 2.6 0.00 0.00 0.00 70 1007.5
20260506083933 65 333 0.9 1.7 0.00 0.00 0.00 70 1007.2
20260506083431 64 4 0.9 0.9 0.00 0.00 0.00 70 1007.2
20260506082928 64 45 0.0 0.0 0.00 0.00 0.00 70 1007.4
20260506082425 63 46 0.0 0.0 0.00 0.00 0.00 72 1007.4
20260506081921 63 20 0.9 0.9 0.00 0.00 0.00 70 1007.4
20260506081420 63 76 0.0 0.9 0.00 0.00 0.00 71 1007.5
20260506080916 63 49 0.0 0.0 0.00 0.00 0.00 73 1007.5
20260506080413 63 51 0.0 0.0 0.00 0.00 0.00 72 1007.5
20260506073357 61 47 0.0 0.9 0.00 0.00 0.00 74 1007.4
20260506072854 61 53 0.0 0.0 0.00 0.00 0.00 76 1007.5
20260506072351 61 50 0.0 0.0 0.00 0.00 0.00 75 1007.6
20260506071849 61 47 0.0 0.0 0.00 0.00 0.00 76 1007.7
20260506071347 61 46 0.0 0.0 0.00 0.00 0.00 76 1007.7
20260506070843 61 50 0.0 0.9 0.00 0.00 0.00 75 1007.7
20260506070341 61 55 0.0 0.0 0.00 0.00 0.00 75 1007.7
20260506062318 64 45 0.0 0.0 0.00 0.00 0.00 67 1007.8
20260506061814 64 50 0.0 0.0 0.00 0.00 0.00 67 1008.0
20260506061310 64 56 0.0 0.0 0.00 0.00 0.00 66 1008.0
20260506060809 65 51 0.0 0.0 0.00 0.00 0.00 66 1008.2
20260506060307 66 41 0.0 0.0 0.00 0.00 0.00 64 1008.3
20260506051238 67 35 0.0 0.0 0.00 0.00 0.00 61 1008.4
20260506050736 67 48 0.0 0.0 0.00 0.00 0.00 61 1008.4
20260506050233 67 35 0.9 1.7 0.00 0.00 0.00 61 1008.6
20260506044724 68 325 0.9 1.7 0.00 0.00 0.00 60 1008.7
20260506044221 68 275 2.6 2.6 0.00 0.00 0.00 59 1008.7
20260506043718 67 24 0.9 1.7 0.00 0.00 0.00 60 1008.7
20260506043216 67 40 0.0 0.9 0.00 0.00 0.00 60 1008.5
20260506042714 68 37 0.0 0.0 0.00 0.00 0.00 59 1008.4
20260506042212 68 97 0.0 0.0 0.00 0.00 0.00 59 1008.8
20260506041711 68 67 0.9 1.7 0.00 0.00 0.00 59 1008.6
20260506041208 68 183 0.9 1.7 0.00 0.00 0.00 58 1008.5
20260506040705 68 332 0.0 0.9 0.00 0.00 0.00 59 1008.7
20260506040202 68 142 1.7 1.7 0.00 0.00 0.00 58 1008.7
20260506035658 69 7 1.7 1.7 0.00 0.13 0.13 58 1008.6
20260506035155 69 191 1.7 4.3 0.00 0.13 0.13 57 1008.6
20260506034646 69 54 1.7 2.6 0.00 0.13 0.13 56 1008.7
20260506034143 69 138 0.9 0.9 0.00 0.13 0.13 56 1008.5
20260506033641 69 249 1.7 2.6 0.00 0.13 0.13 56 1008.4
20260506033137 70 133 0.9 1.7 0.00 0.13 0.13 55 1008.3
20260506032635 70 279 3.5 4.3 0.00 0.13 0.13 55 1008.4
20260506032131 70 256 5.2 7.0 0.00 0.13 0.13 54 1008.5
20260506031628 70 87 2.6 4.3 0.00 0.13 0.13 54 1008.3
20260506031125 71 213 1.7 1.7 0.00 0.13 0.13 54 1008.5
20260506030624 71 359 0.9 1.7 0.00 0.13 0.13 54 1008.4
20260506030121 71 183 2.6 4.3 0.00 0.13 0.13 53 1008.2
20260506025618 71 296 2.6 5.2 0.00 0.13 0.13 53 1008.3
20260506025113 71 225 5.2 7.8 0.00 0.13 0.13 52 1008.4
20260506024611 71 228 2.6 4.3 0.00 0.13 0.13 52 1008.4
20260506024107 72 42 2.6 5.2 0.00 0.13 0.13 52 1008.5
20260506023603 72 215 4.3 8.7 0.00 0.13 0.13 52 1008.6
20260506023101 71 266 3.5 4.3 0.00 0.13 0.13 52 1008.6
20260506022558 71 43 2.6 2.6 0.00 0.13 0.13 52 1008.5
20260506022056 72 308 2.6 2.6 0.00 0.13 0.13 51 1008.6
20260506021553 72 236 3.5 5.2 0.00 0.13 0.13 51 1008.4
20260506021050 72 60 0.0 0.9 0.00 0.13 0.13 52 1008.5
20260506020547 72 21 1.7 2.6 0.00 0.13 0.13 51 1008.5
20260506020045 72 209 4.3 7.8 0.00 0.13 0.13 50 1008.5
20260506015542 73 3 2.6 5.2 0.00 0.13 0.13 50 1008.4
20260506015039 72 192 2.6 2.6 0.00 0.13 0.13 50 1008.5
20260506014537 72 281 0.9 1.7 0.00 0.13 0.13 50 1008.3
20260506014032 72 222 0.9 1.7 0.00 0.13 0.13 50 1008.4
20260506013531 73 26 0.9 1.7 0.00 0.13 0.13 50 1008.2
20260506013026 73 27 0.9 0.9 0.00 0.13 0.13 51 1008.3
20260506012522 73 151 2.6 4.3 0.00 0.13 0.13 50 1008.2
20260506012019 73 234 2.6 4.3 0.00 0.13 0.13 49 1008.0
20260506011517 73 10 0.0 0.9 0.00 0.13 0.13 49 1007.9
20260506011013 74 352 0.0 0.9 0.00 0.13 0.13 49 1007.9
20260506010508 74 355 0.9 0.9 0.00 0.13 0.13 48 1007.7
20260506010004 74 202 3.5 7.0 0.00 0.13 0.13 48 1007.7
20260506005501 74 244 1.7 2.6 0.00 0.13 0.13 47 1007.6
20260506004956 74 300 3.5 6.1 0.00 0.13 0.13 48 1007.8
20260506004454 73 287 0.9 1.7 0.00 0.13 0.13 49 1007.7
20260506003950 74 66 0.0 0.9 0.00 0.13 0.13 48 1007.5
20260506003447 74 224 1.7 4.3 0.00 0.13 0.13 47 1007.5
20260506002943 75 43 0.0 0.9 0.00 0.13 0.13 47 1007.4
20260506002439 75 216 2.6 4.3 0.00 0.13 0.13 45 1007.6
20260506001935 75 207 2.6 2.6 0.00 0.13 0.13 45 1007.3
20260506001432 75 47 0.9 1.7 0.00 0.13 0.13 45 1007.4
20260506000929 75 204 2.6 5.2 0.00 0.13 0.13 45 1007.2
20260506000427 75 60 0.9 1.7 0.00 0.13 0.13 45 1007.3
20260505235923 76 203 3.5 5.2 0.00 0.13 0.13 44 1007.1
20260505235422 76 274 2.6 2.6 0.00 0.13 0.13 44 1007.0
20260505234918 76 74 1.7 1.7 0.00 0.13 0.13 43 1007.1
20260505234416 76 201 2.6 2.6 0.00 0.13 0.13 43 1007.1
20260505233912 76 261 2.6 2.6 0.00 0.13 0.13 44 1007.0
20260505233410 77 47 0.0 0.0 0.00 0.13 0.13 45 1007.1
20260505232907 77 45 0.0 0.0 0.00 0.13 0.13 43 1007.1
20260505232405 77 74 0.9 0.9 0.00 0.13 0.13 44 1006.9
20260505231902 77 352 1.7 1.7 0.00 0.13 0.13 43 1007.0